OBJECT W

基本信息
目录编号:
57186
目录名称:
OBJECT W
国际标识:
2023-091W
轨道中心:
EARTH
物体状态:
在轨
发射日期:
2023-06-27 UTC
国别:
(TBD)
轨道信息
数据来源: 国际轨道数据
星历时间: 2026-09-04T03:33:06+0800
半长轴: 6853.923km
偏心率: 0.001803
轨道倾角: 97.507°
近地点辐角: 170.180°
升交点赤经: 313.883°
平近点角: 189.979°
近地点: 463.428km
远地点: 488.144km
周期: 94.117分钟
每日圈数: 15.300089
详细信息
发射场:
VOSTO
轨道高度:
LEO
数据来源:
AOE Integration Group
参考系:
TEME
时间系统:
UTC
历元类型:
SGP4
2D轨道图
3D轨道图
轨道高度分析图
轨道倾角分析图
轨道综合分析图
查看轨道综合分析图